Starlink 31900

operational
NORAD ID: 59942 Int'l Des: 2024-106 Owner: SPXS Country: US Constellation: starlink
LEOCIRCULAR

About Starlink 31900

Description loading...

Live Position

Loading 3D Globe...

Upcoming Passes

Altitude History

Altitude vs Time

uPlot chart will show altitude changes over time

Two-Line Element Set

1 59942U 24106W 25256.27723331 .00001804 00000-0 75028-4 0 9999
2 59942 42.9992 254.1269 0000791 265.3844 94.6917 15.27584947 73394
Epoch: Sep 13, 2025 • Age: 51 hours

Current Status

Altitude 486.9 km
Velocity 7.62 km/s
Sub-Earth Point -18.76°S, 57.92°W
Launch Date Jun 1, 2024
Age 1.2 years
Type internet

Technical Details

Classification Payload
Mass 730.00 kg
Dry Mass 700.00 kg
Total Mass 730.00 kg
Length 0.30 m
Diameter 4.10 m
Span 29.00 m
Shape Box + pan
Manufacturer SPXS
Bus Type Starlink V2M
Phase Status In Orbit
Owner/State SPXS/US

Large Constellations

Loading constellations...